Погода в Томмоте

Погода в Томмоте : погода сейчас, прогноз погоды и архив. Всё, что Вы хотите узнать о погоде в Томмоте!

Поиск расширенной информации на нашем сайте:

Другие новости

Новости СМИ2

Главная страница сайта

Новости сайта

02.10.2013

Напоминаем, что на нашем новом сайте вы можете получить высокодетализированные прогнозы погоды по пунктам России, СНГ и мира (включающие важные для авиации метеовеличины, такие как направление и скорость ветра, видимость, явления погоды, количество и форма облачности, нижняя и верхняя граница облачности), а также ознакомиться с разнообразными материалами по авиационной метеорологии и подборкой полезных ссылок на эту тему.

Сайт Метеоцентр.Азия посвящён разработке технологий оптимизации авиаметеорологического обслуживания, включая проектирование и перспективное создание нескольких автоматизированных авиаметеорологических систем:
- система выпуска высокодетальных прогностических карт явлений погоды для нижнего воздушного пространства по России и ближнему зарубежью;
- система верификации прогнозов TAF (выпускаемых синоптиками официальных АМСГ РФ и ближнего зарубежья) и AUTOTAF (выпускаемых сайтом Метеоцентр.Азия) - выявление ошибок, онлайн-сопоставление с фактической погодой METAR, автоматическое внесение коррективов в прогнозы при резком отклонении фактической погоды от прогноза, подсчёт оправдываемости прогнозов по элементам и в целом;
- система обработки, анализа и отображения авиаметеорологической информации для применения провайдерами метеорологической информации.

Рекомендуем: Смотрите подробности газонокосилки сабо ремонт тут.

Погода в Томмоте - сегодня

Время (UTC), дата Ветер
(°,м/с) 
Видим.   Явления Облачность Т
(°С)
Тd
(°С)
f(%) Тe
(°С)
Pmin
(гПа)
dP
(гПа)
Po
(мм)
O2
(г/м3)
Тmin Tmax R s Состояние
почвы
21 26.03.17 тихо ()   20000 м    ясно 
-19.2 -19.2 100 -19  1020.4  -0.7  737  321           
00 27.03.17 210 (ЮЗ) 20000 м    ясно 
-11.6 -12.2 95 -11  1018.5  -0.7  736  311  -19.8      45  равномерный
мокрый или
старый снег
100% 
03 27.03.17 220 (ЮЗ) 20000 м    1/1 600 м 
[Cu hum]
-0.6 -7.8 58 -1  1014.6  -2.3  734  297           
06 27.03.17 300 (СЗ) 20000 м    3/3 600 м 
[Cu hum]
+6.1 -7.8 36 +7  1011.2  -2.5  733  289           
09 27.03.17 190 (Ю) 20000 м    3/3 600 м 
[Cu hum]
+5.7 -7.1 39 +5  1010.6  -0.6  732  290           
12 27.03.17 140 (ЮВ) 20000 м    ясно 
-3.3 -9.3 63 -3  1012.3  0.5  733  300    +7.7       
15 27.03.17 тихо ()   20000 м    ясно 
-10.3 -10.9 95 -10  1013.8  0.6  733  308           
18 27.03.17 тихо ()   20000 м    ясно 
-13.2 -13.8 95 -13  1016.2  1.8  734  312           
21 27.03.17 тихо ()   1000 м  ливневой снег  10/10 600 м кучево-дожд. 
[Cb cap]
-11.5 -11.5 100 -12  1017.8  1.8  736  311           
00 28.03.17 тихо ()   20000 м  слаб. ливневой снег  9/9 600 м кучево-дожд. 
[Cb cap]
-8.3 -8.6 98 -8  1019.5  2.1  737  307  -13.2    47  равномерный
мокрый или
старый снег
100% 
03 28.03.17 330 (СЗ) 20000 м  {ливн. осадки}  10/6 600 м кучево-дожд., верхняя 
[Cb cap|Ci fib]
+1 -5 64 1019  0.6  738  297           
06 28.03.17 320 (СЗ) 20000 м  {ливн. осадки}  9/6 600 м кучево-дожд., верхняя 
[Cb cap|Ci fib]
+2.2 -9.8 41 +2  1019.4  0.7  738  296           
09 28.03.17 310 (СЗ) 20000 м    8/4 600 м кучево-дожд., верхняя 
[Cb cap|Ci fib]
+2.5 -6.9 50 +2  1020.5  1.1  739  296           
12 28.03.17 тихо ()   20000 м    3/0 верхняя 
[Ci sp]
-5.6 -9.4 75 -6  1023.6  1.9  740  306    +3.4  0.0     
15 28.03.17 тихо ()   20000 м    ясно 
-11.9 -12.5 95 -12  1026.2  1.6  742  314           
18 28.03.17 тихо ()   20000 м    ясно 
-17.3 -17.3 100 -17  1028.7  1.7  743  321           
21 28.03.17 тихо ()   20000 м    ясно 
-21.3 -21.3 100 -21  1030.8  1.5  744  327           
00 29.03.17 тихо ()   20000 м    ясно 
-14.2 -15.5 90 -14  1031.1  1.2  745  318  -21.8      44  равномерный
мокрый или
старый снег
100% 
03 29.03.17 310 (СЗ) 20000 м    3/3 600 м 
[Cu med, cong]
-2 -10.5 52 -1  1027.9  -1.4  744  303           
06 29.03.17 030 (СВ) 20000 м    8/8 600 м кучево-дожд. 
[Cb cap]
+1.7 -9.1 44 +1  1025.8  -1.5  743  298           
09 29.03.17 340 (С) 20000 м  {ливн. осадки}  6/6 600 м кучево-дожд. 
[Cb cap]
+1.4 -7.3 52 +1  1025.8  743  299           
12 29.03.17 тихо ()   20000 м  {ливн. осадки}  9/9 600 м кучево-дожд. 
[Cb cap]
-3 -7.6 71 -3  1026.9  0.4  743  304    +3.5  0.0     
15 29.03.17 тихо ()   20000 м    10/10 600 м кучево-дожд. 
[Cb cap]
-5.2 -7.3 85 -5  1027  -0.2  743  306           
18 29.03.17 170 (Ю) 20000 м    10/10 600 м кучево-дожд. 
[Cb cap]
-5.9 -7.8 86 -6  1027.1  743  307           
21 29.03.17 тихо ()   20000 м    9/9 1000 м 
[Sc]
-8.7 -9.8 92 -9  1027.3  -0.1  743  310           
Время (UTC), дата Ветер
(°,м/с) 
Видим.   Явления Облачность Т
(°С)
Тd
(°С)
f(%) Тe
(°С)
Pmin
(гПа)
dP
(гПа)
Po
(мм)
O2
(г/м3)
Тmin Tmax R s Состояние
почвы

Для получения пояснительной информации подведите курсор к названию столбца.

ПОГОДА в Томмоте - архив

Всё, что Вы хотите узнать о погоде в Томмоте - удобно и подробно!

Выберите нужную дату (начиная с 1 января 2015* года) и нажмите кнопку "Найти".
Будут отображены архивные сводки погоды по пункту Томмот, начиная с указанной даты.


Отображать данные в формате CSV (для использования в таблицах Excel)


Внимание! Наш архив погоды предназначен исключительно для личного некоммерческого использования в познавательных целях. Если Вам необходимы официальные справки о состоянии погоды (для производственных, юридических, коммерческих и т.п. целей), обращайтесь в органы Росгидромета.

*Примечание: данная дата относится к архиву по метеостанциям СССР (Россия, СНГ, Балтия).
Архив по метеостанциям Зарубежной Европы и Азии (кроме Китая) хранится 10 дней, по другим регионам земного шара (Китай, Африка, Америка, Австралия, Океания) - 1 день.

Томмот - район местоположения метеостанции


Название, широта, долгота, высота метеостанции:
Томмот 58.9°ш. 126.3°д. 283 м над ур. моря [Российская Федерация]

Дополнительная информация

В oтличие oт бoльшинства пoгoдных сайтoв мы публикуем пoдрoбную метеoинфoрмацию в детальнoм прoфессиoнальнoм фoрмате.

Характеристики температуры и влажнoсти вoздуха измеряются на высoте 2 м в тени вдали oт зданий и деревьев.
Скoрoсть ветра измеряется на высoте 10 м (на урoвне рoста челoвека скoрoсть ветра ниже в 1.5-2 раза). Если метеoстанция нахoдится в гoрoде или в лесу, тo скoрoсть ветра занижена на 2-4 м/с пo сравнению с oткрытым местoм. Скoрoсть ветра над акватoриями крупных рек и oзёр, а также на вершинах хoлмoв на 2-5 м/с выше, чем в oбычных услoвиях.
Атмoсфернoе давление в разных тoчках местнoсти мoжет значительнo oтличаться oт давления на метеoстанции, в зависимoсти oт услoвий рельефа (при пoдъёме на 10 м давление пoнижается примернo на 1 мм рт.ст.).